This is the latest recevied weather packets stored in our database for station/object EA5JUX. If no packets are shown the sender has not sent any weather packets the latest 10 day(s).
| Time | Temp. | Humidity | Pressure | Rain* | Wind** | Luminosity | Snow |
|---|---|---|---|---|---|---|---|
| 1787779601 | 28.89° C | 52% | 1009.5 hPa | 0 mm | - | - | - |
| 1787779301 | 28.33° C | 54% | 1009.8 hPa | 0 mm | - | - | - |
| 1787779001 | 27.78° C | 57% | 1009.7 hPa | 0 mm | - | - | - |
| 1787778701 | 27.78° C | 61% | 1009.8 hPa | 0 mm | - | - | - |
| 1787778401 | 27.78° C | 62% | 1009.5 hPa | 0 mm | - | - | - |
| 1787778101 | 27.78° C | 59% | 1009.4 hPa | 0 mm | - | - | - |
| 1787777801 | 28.33° C | 54% | 1009.6 hPa | 0 mm | - | - | - |
| 1787777501 | 28.33° C | 56% | 1009.7 hPa | 0 mm | - | - | - |
| 1787777201 | 27.78° C | 58% | 1010 hPa | 0 mm | - | - | - |
| 1787776910 | 27.22° C | 62% | 1010 hPa | 0 mm | - | - | - |
| 1787776601 | 26.67° C | 67% | 1010.4 hPa | 0 mm | - | - | - |
| 1787776301 | 26.67° C | 69% | 1010.2 hPa | 0 mm | - | - | - |
| 1787776002 | 26.67° C | 68% | 1010.4 hPa | 0 mm | - | - | - |
| 1787775701 | 26.67° C | 69% | 1010.2 hPa | 0 mm | - | - | - |
| 1787775401 | 26.67° C | 70% | 1010.2 hPa | 0 mm | - | - | - |
| 1787775101 | 26.67° C | 70% | 1010.2 hPa | 0 mm | - | - | - |
| 1787774812 | 26.67° C | 71% | 1010 hPa | 0 mm | - | - | - |
| 1787774500 | 26.67° C | 71% | 1009.6 hPa | 0 mm | - | - | - |
| 1787774201 | 26.67° C | 70% | 1009.7 hPa | 0 mm | - | - | - |
| 1787773901 | 26.67° C | 70% | 1009.9 hPa | 0 mm | - | - | - |
| 1787773615 | 26.67° C | 70% | 1009.8 hPa | 0 mm | - | - | - |
| 1787773300 | 26.67° C | 69% | 1009.5 hPa | 0 mm | - | - | - |
| 1787773011 | 26.67° C | 69% | 1009.7 hPa | 0 mm | - | - | - |
| 1787772700 | 26.67° C | 69% | 1009.5 hPa | 0 mm | - | - | - |
| 1787772401 | 26.67° C | 69% | 1009.6 hPa | 0 mm | - | - | - |
* Rain latest hour (hover to see other rain measurements)
** Current wind speed in m/s (hover to see current wind gust speed)